Location: Haliburton Scout Reserve
(45.0900°N, 78.3200°W)
Time: 23:07:52
(UTC-05:00)

S-56A Canister/Altair - All Passes

Search period start: 29 January 2023 00:00
Search period end: 08 February 2023 00:00
Orbit: 639 x 2493 km, 38.9° (Epoch: 29 January)

Date Brightness Start Highest point End Pass type
(mag) Time Alt. Az. Time Alt. Az. Time Alt. Az.
29 Jan - 11:20:12 10° S 11:22:58 15° SE 11:26:07 10° ESE daylight
29 Jan - 13:20:19 10° SW 13:25:32 43° SSE 13:32:56 10° E daylight
29 Jan - 15:22:47 10° W 15:29:16 55° S 15:39:04 10° ESE daylight
29 Jan - 17:26:05 10° W 17:33:38 39° SSW 17:44:22 10° SE visible
29 Jan - 19:31:39 10° WSW 19:38:04 18° SW 19:45:44 10° S visible
30 Jan - 10:49:01 10° SSE 10:50:29 11° SE 10:52:03 10° ESE daylight
30 Jan - 12:48:04 10° SW 12:52:54 38° SSE 12:59:33 10° E daylight
30 Jan - 14:50:23 10° WSW 14:56:26 54° S 15:05:30 10° ESE daylight
30 Jan - 16:53:30 10° W 17:00:38 40° SSW 17:10:54 10° SE daylight
30 Jan - 18:58:34 10° WSW 19:05:00 20° SW 19:12:55 10° S visible
31 Jan - 12:15:51 10° SW 12:20:20 33° SSE 12:26:14 10° E daylight
31 Jan - 14:18:00 10° WSW 14:23:39 52° S 14:32:01 10° ESE daylight
31 Jan - 16:21:00 10° W 16:27:41 41° SSW 16:37:26 10° SE daylight
31 Jan - 18:25:38 10° WSW 18:31:59 21° SSW 18:39:59 10° S visible
01 Feb - 11:43:40 10° SW 11:47:47 29° SSE 11:52:58 10° E daylight
01 Feb - 13:45:39 10° WSW 13:50:56 51° S 13:58:35 10° ESE daylight
01 Feb - 15:48:32 10° W 15:54:48 42° SSW 16:03:59 10° SE daylight
01 Feb - 17:52:48 10° WSW 17:58:59 22° SSW 18:06:57 10° SSE visible
02 Feb - 11:11:30 10° SSW 11:15:16 25° SSE 11:19:47 10° E daylight
02 Feb - 13:13:17 10° WSW 13:18:16 48° S 13:25:15 10° ESE daylight
02 Feb - 15:16:06 10° W 15:21:58 43° SSW 15:30:34 10° SE daylight
02 Feb - 17:20:04 10° WSW 17:26:02 23° SSW 17:33:52 10° SSE daylight
03 Feb - 10:39:22 10° SSW 10:42:46 21° SSE 10:46:38 10° ESE daylight
03 Feb - 12:40:57 10° WSW 12:45:39 45° S 12:52:00 10° ESE daylight
03 Feb - 14:43:40 10° W 14:49:12 43° S 14:57:11 10° ESE daylight
03 Feb - 16:47:25 10° WSW 16:53:08 24° SSW 17:00:45 10° SSE daylight
04 Feb - 10:07:17 10° SSW 10:10:17 17° SSE 10:13:31 10° ESE daylight
04 Feb - 12:08:36 10° WSW 12:13:03 42° S 12:18:49 10° E daylight
04 Feb - 14:11:17 10° W 14:16:28 43° S 14:23:52 10° ESE daylight
04 Feb - 16:14:50 10° WSW 16:20:17 25° SSW 16:27:36 10° SSE daylight
05 Feb - 09:35:17 10° S 09:37:47 15° SSE 09:40:22 10° ESE daylight
05 Feb - 11:36:15 10° SW 11:40:30 38° SSE 11:45:45 10° E daylight
05 Feb - 13:38:53 10° WSW 13:43:48 43° S 13:50:36 10° ESE daylight
05 Feb - 15:42:17 10° WSW 15:47:29 26° SSW 15:54:28 10° SSE daylight
06 Feb - 09:03:24 10° S 09:05:16 12° SSE 09:07:08 10° SE daylight
06 Feb - 11:03:53 10° SW 11:07:58 35° SSE 11:12:45 10° E daylight
06 Feb - 13:06:30 10° WSW 13:11:09 43° S 13:17:26 10° ESE daylight
06 Feb - 15:09:46 10° WSW 15:14:42 27° SSW 15:21:20 10° SSE daylight
07 Feb - 08:31:58 10° SSE 08:32:44 10° SSE 08:33:31 10° SE daylight
07 Feb - 10:31:29 10° SW 10:35:27 32° SSE 10:39:51 10° ESE daylight
07 Feb - 12:34:05 10° WSW 12:38:33 42° S 12:44:19 10° ESE daylight
07 Feb - 14:37:18 10° WSW 14:41:59 27° SSW 14:48:14 10° SE daylight
07 Feb - 16:44:37 10° SW 16:45:40 10° SSW 16:46:45 10° SSW daylight
